Showing default

QIANFAN-65, 62795

Orbit data source: Space-Track

QIANFAN-65, 62795 is a Chinese payload satellite in LEO that was launched on Thu, 23 Jan 2025 UTC via a CHANG ZHENG 6A launch vehicle from the Taiyaun Space Center, China (TSC). Payload-class satellites include a variety of spacecraft equipped with specific instruments for various scientific and technological missions. These include communications satellites like Starlink; space stations such as the ISS; scientific satellites like the Hubble; Earth observation satellites from companies like Planet Labs, Umbra, and HawkEye 360; GPS; miniature CubeSats for education and research; and military/defense satellites.

Loading next visibility...
Identifier
62795, 2025-016L
Orbit
LEO
Country
Flag of CNCN / PRC
Related business
Manufacturer
SECM
Mission
Operational Commercial Communications
Bus & Motor
QIANFAN, Unknown motor
Mass
267 kg wet, ~267 kg dry
Launch date (UTC)
2025-01-23 (1 year ago)
Launch vehicle
CHANG ZHENG 6A
Launch site
Taiyaun Space Center, China (TSC)
Object type
Payload
Rocket body
Debris
Shape & HBR
Box + 1 Pan, 1.6 m
Radar Cross Section
13.200 m², Large (>1 m²)

Expand to show TLE details & history
Last TLE update: 6 hours ago

TLE from 6 hours ago
0 QIANFAN-65
1 62795U 25016L   26035.79736075  .00000107  00000-0  14768-3 0  9990
2 62795  88.9720  97.4679 0014384 178.9584 181.1599 13.50989050 54541
Epoch: 2026-02-04T19:08Z
TLE epoch observation values (Epoch: 2026-02-04T19:08:11.968Z)
Latitude
-0.0001°
Longitude
35.45925°
Altitude
1,082.286 km
Speed
7.306 km/s
True Right ascension
06h 29m 52s
True Declination
0° 00' 00"
Sunlit
Object was in full shadow at epoch
Visualization orbit readout
Latitude
Unknown
Longitude
Unknown
Altitude
Unknown
Speed
Unknown
Apparent Right ascension
Unknown
Apparent Declination
Unknown
Sunlit
N/A
Visualization observer readout
Local Sidereal Time
03:17:21
Azimuth
Unknown
Elevation
Unknown
Doppler factor
Unknown
Orbital elements
Apogee altitude
1,076.38 km
Perigee altitude
1,054.966 km
Semi-major axis
7,443.81 km
Eccentricity
0.00144
Inclination
88.972°
RAAN
97.4679°
Arg. of periapsis
178.9584°
True anomaly
181.15657°
Mean anomaly
181.1599°
Eccentric anomaly
181.15823°
Mean motion
3.37948 °/min
Orbital period
106.53 mins
BSTAR
0.00014768
Loading maneuver chart data...
Computing Atmospheric mass density...
Loading historical data...
Loading historical data...
Loading historical data...
Loading historical data...
Loading historical data...
Loading historical data...
Loading historical data...

Documentation

Showing up to 5 results
|